Content
SEND FEEDBACK

Daily
Averages
Monthly
Summary
Canada

CHARLOTTETOWN, PRINCE EDWARD ISLAND


Home > North America > Canada > Prince Edward Island
Elevation: 181 feet     Latitude: 46 17N     Longitude: 063 08W

WEATHER
 
SELECT A DAY
Number of Records: 194,707;   Date Range: 1/1/95 - 7/8/14
 
SHARE

PRINT THIS DATA

[ ← Previous Day ]
WEATHER ALMANAC - JUNE 28, 2013
[ Next Day → ]
[ °C ]   °F
Weather ElementAverageHighLow
Temperature55.8 °F60.8 °F (2:00 pm)51.8 °F (4:00 am)
Dewpoint54 °F57.2 °F (12:11 pm)50 °F (3:00 am)
Humidity93.5 %100 % (5:00 am)82 % (2:00 pm)
Barometer29.95 in30.01 in (1:00 am)29.84 in (11:00 pm)
Wind Speed10.3 mph15 mph (6:10 pm)
Wind Gust20.7 mph (3:36 pm)
Weather ElementAverage
Visibility11.5 mi
Wind DirectionE (86.8 °)

Weather ElementTotal
Precipitation---
Heating Degree Days8.7 (Base 65)
Growing Degree Days6.3 (Base 50)
Averaged from 40 records on June 28, 2013
WEATHER CONDITIONS BREAKOUT
WIND DIRECTION BREAKOUT
WEATHER BY HOUR - JUNE 28, 2013
[ °C ]   °F
Local TimeTemperatureDewpointHumidityBarometerVisibilityWind DirectionWind SpeedGust SpeedPrecipitationEventsConditions
1:00 AM53.6 °F51.8 °F94 %30.01 in15.0 miNE (40°)9.2 mphOvercast
2:00 AM53.6 °F51.8 °F94 %30.00 in15.0 miENE (70°)6.9 mphOvercast
3:00 AM53.0 °F51.0 °F89 %30.01 in15.0 miNE (40°)6.9 mphPartly Cloudy
3:00 AM53.6 °F50.0 °F88 %30.00 in15.0 miNE (40°)8.1 mphOvercast
4:00 AM51.8 °F50.0 °F94 %30.01 in15.0 miENE (60°)6.9 mphOvercast
5:00 AM51.8 °F51.8 °F100 %30.01 in15.0 miENE (60°)5.8 mphOvercast
5:49 AM51.8 °F51.8 °F100 %30.01 in0.0 miNE (50°)5.8 mphLight Drizzle
6:00 AM51.8 °F51.8 °F100 %30.01 in10.0 miENE (70°)4.6 mphLight Drizzle
7:00 AM51.8 °F51.8 °F100 %30.01 in10.0 miNE (50°)8.1 mphLight Drizzle
7:41 AM53.6 °F51.8 °F94 %30.01 in10.0 miENE (70°)5.8 mphOvercast
8:00 AM53.6 °F51.8 °F94 %30.01 in15.0 miEast (80°)9.2 mphOvercast
9:00 AM54.0 °F53.0 °F93 %30.01 in15.0 miEast (80°)8.1 mphPartly Cloudy
9:00 AM55.4 °F51.8 °F88 %30.00 in15.0 miEast (80°)9.2 mphOvercast
10:00 AM55.4 °F53.6 °F94 %30.00 in15.0 miEast (80°)8.1 mphOvercast
11:00 AM57.2 °F55.4 °F94 %30.00 in15.0 miENE (70°)8.1 mphOvercast
12:00 PM57.2 °F55.4 °F94 %29.99 in15.0 miEast (80°)9.2 mphOvercast
12:11 PM59.0 °F57.2 °F94 %29.99 in15.0 miEast (80°)8.1 mphRainLight Rain
12:53 PM59.0 °F57.2 °F94 %29.97 in10.0 miEast (80°)10.4 mphRainLight Rain
1:00 PM59.0 °F57.2 °F94 %29.97 in10.0 miEast (90°)10.4 mphRainLight Rain
2:00 PM60.8 °F55.4 °F82 %29.96 in15.0 miEast (80°)11.5 mphOvercast
2:46 PM59.0 °F55.4 °F88 %29.95 in15.0 miEast (90°)13.8 mphRainLight Rain
3:00 PM59.0 °F56.0 °F85 %29.95 in15.0 miEast (90°)13.8 mphRainLight Rain
3:00 PM59.0 °F55.4 °F88 %29.95 in15.0 miEast (100°)12.7 mph19.6 mphRainLight Rain
3:36 PM59.0 °F55.4 °F88 %29.94 in15.0 miEast (100°)11.5 mph20.7 mphOvercast
4:00 PM59.0 °F55.4 °F88 %29.94 in15.0 miEast (100°)13.8 mphRainLight Rain Showers
4:29 PM57.2 °F55.4 °F94 %29.93 in2.0 miEast (100°)12.7 mph19.6 mphRainRain Showers
5:00 PM57.2 °F55.4 °F94 %29.93 in2.0 miEast (100°)12.7 mphRainRain Showers
5:20 PM57.2 °F55.4 °F94 %29.93 in3.0 miESE (110°)12.7 mph18.4 mphRainLight Rain Showers
6:00 PM57.2 °F55.4 °F94 %29.92 in2.0 miEast (90°)10.4 mphRainRain Showers
6:06 PM57.2 °F55.4 °F94 %29.91 in2.0 miEast (100°)11.5 mph19.6 mphRainHeavy Rain Showers
6:08 PM55.4 °F55.4 °F100 %29.91 in2.0 miESE (110°)11.5 mph19.6 mphRainRain Showers
6:10 PM55.4 °F55.4 °F100 %29.91 in10.0 miESE (110°)15.0 mphRainLight Rain Showers
7:00 PM55.4 °F53.6 °F94 %29.91 in15.0 miESE (110°)13.8 mphOvercast
8:00 PM55.4 °F53.6 °F94 %29.89 in15.0 miESE (110°)11.5 mph17.3 mphOvercast
8:34 PM55.4 °F53.6 °F94 %29.88 in12.0 miESE (110°)15.0 mphRainLight Rain Showers
9:00 PM55.0 °F54.0 °F95 %29.88 in12.0 miESE (110°)12.7 mphRainLight Rain Showers
9:00 PM55.4 °F53.6 °F94 %29.88 in12.0 miESE (120°)12.7 mph19.6 mphRainLight Rain Showers
10:00 PM55.4 °F53.6 °F94 %29.86 in12.0 miESE (120°)11.5 mph18.4 mphRainLight Rain Showers
10:53 PM55.4 °F53.6 °F94 %29.85 in12.0 miESE (120°)10.4 mphOvercast
11:00 PM55.4 °F55.4 °F100 %29.84 in12.0 miESE (120°)13.8 mphRainLight Rain Showers
Hourly data recorded from CYYG, located miles away from Charlottetown, Prince Edward Island







STORIES FROM OUR PARTNERS